{"data":{"norad_id":44634,"epoch":"2026-09-19T22:16:03.031104Z","epoch_age_seconds":111028,"freshness":"FRESH","line1":"1 44634U 19069A   26262.92781286  .00000100  00000+0  24308-3 0  9997","line2":"2 44634  87.8808 260.8636 0009715 161.8735 198.2741 13.11907086331539","mean_motion":13.11907086,"eccentricity":0.0009715,"inclination_deg":87.8808,"raan_deg":260.8636,"arg_perigee_deg":161.8735,"mean_anomaly_deg":198.2741,"bstar":0.00024308,"rev_number":33153,"period_min":109.76387088437,"perigee_km":1208.4131660287,"apogee_km":1223.1681674852,"semimajor_km":7593.927666757,"source":"CELESTRAK","updated_at":"2026-09-20T09:00:14.536041Z"}}